Location: Newark
(54.6833°N, 25.2833°E)
Time: 02:57:42
(UTC+00:00)

Vanguard 1 Rocket - All Passes

Search period start: 21 September 2020 00:00
Search period end: 01 October 2020 00:00
Orbit: 655 x 4222 km, 34.3° (Epoch: 20 September)

Date Brightness Start Highest point End Pass type
(mag) Time Alt. Az. Time Alt. Az. Time Alt. Az.
21 Sep - 15:05:36 10° SSE 15:14:14 15° SE 15:24:44 10° E daylight
21 Sep - 17:23:09 10° SSW 17:39:07 35° SSE 18:00:14 10° E visible
21 Sep - 19:47:16 10° WSW 20:07:15 44° S 20:29:55 10° ESE visible
21 Sep - 22:15:10 10° W 22:35:57 36° SSW 22:55:21 10° SSE visible
22 Sep - 00:48:59 10° W 01:01:59 17° SW 01:13:34 10° SSW visible
22 Sep - 16:13:43 10° S 16:26:56 27° SE 16:44:57 10° E daylight
22 Sep - 18:35:47 10° SW 18:53:46 42° SSE 19:16:34 10° ESE visible
22 Sep - 21:01:57 10° WSW 21:22:37 41° SSW 21:44:05 10° SE visible
22 Sep - 23:32:16 10° W 23:50:06 25° SW 00:06:13 10° S visible
23 Sep - 15:05:53 10° SSE 15:15:35 18° SE 15:28:12 10° E daylight
23 Sep - 17:25:08 10° SW 17:40:47 37° SSE 18:02:20 10° ESE visible
23 Sep - 19:49:37 10° WSW 20:09:02 43° S 20:31:45 10° SE visible
23 Sep - 22:17:44 10° W 22:37:28 32° SSW 22:56:37 10° SSE visible
24 Sep - 00:53:52 10° WSW 01:03:08 13° WSW 01:11:49 10° SW visible
24 Sep - 16:15:25 10° SSW 16:28:32 30° SE 16:47:14 10° E visible
24 Sep - 18:38:06 10° SW 18:55:34 42° S 19:18:28 10° ESE visible
24 Sep - 21:04:27 10° WSW 21:24:17 38° SSW 21:45:37 10° SE visible
24 Sep - 23:35:29 10° W 23:51:24 21° SW 00:06:24 10° S visible
25 Sep - 15:06:55 10° S 15:17:04 21° SE 15:31:04 10° E daylight
25 Sep - 17:27:20 10° SW 17:42:34 39° SSE 18:04:18 10° ESE visible
25 Sep - 19:52:06 10° WSW 20:10:49 42° S 20:33:26 10° SE visible
25 Sep - 22:20:31 10° W 22:38:57 29° SW 22:57:29 10° SSE visible
26 Sep - 14:01:20 10° SE 14:06:22 12° ESE 14:12:17 10° ESE daylight
26 Sep - 16:17:23 10° SSW 16:30:15 32° SSE 16:49:20 10° E visible
26 Sep - 18:40:32 10° WSW 18:57:26 42° S 19:20:14 10° ESE visible
26 Sep - 21:07:05 10° W 21:25:56 35° SSW 21:46:50 10° SSE visible
26 Sep - 23:39:21 10° W 23:52:40 17° SW 00:05:40 10° SSW visible
27 Sep - 15:08:27 10° S 15:18:43 24° SE 15:33:33 10° E daylight
27 Sep - 17:29:42 10° SW 17:44:27 39° SSE 18:06:08 10° ESE visible
27 Sep - 19:54:42 10° WSW 20:12:38 39° SSW 20:34:53 10° SE visible
27 Sep - 22:23:36 10° W 22:40:24 25° SW 22:57:51 10° S visible
28 Sep - 14:01:22 10° SSE 14:07:55 15° SE 14:16:18 10° E daylight
28 Sep - 16:19:35 10° SSW 16:32:06 34° SSE 16:51:19 10° ESE visible
28 Sep - 18:43:06 10° WSW 18:59:22 41° S 19:21:49 10° SE visible
28 Sep - 21:09:55 10° W 21:27:35 31° SSW 21:47:43 10° SSE visible
28 Sep - 23:44:37 10° WSW 23:53:55 13° SW 00:03:15 10° SSW visible
29 Sep - 15:10:20 10° SSW 15:20:30 26° SE 15:35:49 10° E daylight
29 Sep - 17:32:12 10° SW 17:46:25 39° S 18:07:51 10° ESE visible
29 Sep - 19:57:26 10° WSW 20:14:28 36° SSW 20:36:05 10° SE visible
29 Sep - 22:27:07 10° W 22:41:51 21° SW 22:57:30 10° S visible
30 Sep - 14:02:26 10° S 14:09:37 17° SE 14:19:24 10° E daylight
30 Sep - 16:21:59 10° SW 16:34:04 35° SSE 16:53:10 10° ESE visible
30 Sep - 18:45:47 10° WSW 19:01:19 39° S 19:23:14 10° SE visible
30 Sep - 21:12:58 10° W 21:29:15 27° SSW 21:48:09 10° SSE visible
